Regional Weather Roundup
Issued by NWS San Diego, CA

Home | Current Version | Previous Version | Text Only | Print | Product List | Glossary On
Versions: 1 2 3 4 5 6 7 8 9 10 11 12 13 14 15 16 17 18 19 20 21 22 23 24 25 26 27 28 29 30 31 32 33 34 35 36 37 38 39 40 41 42 43 44 45 46 47 48 49 50
000
ASUS46 KSGX 030811
RWRSGX

SAN DIEGO HOURLY WEATHER ROUNDUP
NATIONAL WEATHER SERVICE SAN DIEGO CA
100 AM PDT SUN MAY 03 2015

NOTE: "FAIR" INDICATES FEW OR NO CLOUDS BELOW 12,000 FEET WITH NO
SIGNIFICANT WEATHER AND/OR OBSTRUCTIONS TO VISIBILITY.

CAZ042-043-060-061-PZZ750-775-030900-

GREATER SAN DIEGO AREA

CITY           SKY/WX    TMP DP  RH WIND       PRES   REMARKS
LINDBERGH FLD  CLOUDY    64  55  72 S6        29.92S
POINT LOMA       N/A     60  54  80 S5          N/A
NATIONAL CITY    N/A     64  58  81 CALM      29.91S
CHULA VISTA      N/A     60  56  88 CALM      29.84S
IMPERIAL BEACH CLOUDY    63  58  83 CALM      29.91S
BROWN FIELD    CLEAR     59  55  87 CALM      29.91S
MIRAMAR MCAS   MOCLDY    63  54  72 CALM      29.90S
MONTGOMERY FLD CLOUDY    63  56  78 S5        29.91S

$$

NORTH SAN DIEGO COUNTY

CITY           SKY/WX    TMP DP  RH WIND       PRES   REMARKS
CAMP PENDLETON CLOUDY    62  54  74 CALM      29.90S HAZE
OCEANSIDE AP   CLOUDY    62  55  77 CALM      29.89S
OCEANSIDE HBR    N/A     62  58  88 W1        29.92S
VISTA            N/A     61  55  81 CALM      29.88F
CARLSBAD       CLOUDY    62  56  80 S3        29.89F
DEL MAR          N/A     61  58  88 CALM      29.92S
LA JOLLA SCRIP   N/A    N/A N/A N/A CALM      29.88S
FALLBROOK        N/A     59  59 100 CALM      29.90S
ESCONDIDO        N/A     62  56  81 SE7       29.90F
SAN MARCOS       N/A     61  56  83 CALM      29.88F
POWAY            N/A     61  56  82 W2        29.91S

$$

EAST SAN DIEGO COUNTY

CITY           SKY/WX    TMP DP  RH WIND       PRES   REMARKS
RAMONA         CLOUDY    57  52  83 SE3       29.91S
SANTEE LAKES     N/A     58  54  87 CALM      29.91S
LA MESA          N/A     61  56  85 CALM      29.85S
JAMUL            N/A     55  52  90 CALM      29.89S
DESCANSO N       N/A     50  43  76 CALM      29.72R
MT. LAGUNA OBS   N/A     54  28  36 N1        29.61
CAMPO            N/A     47  45  93 NE6       29.89F

$$

ORANGE COUNTY AND THE LOS ANGELES BASIN

CITY           SKY/WX    TMP DP  RH WIND       PRES   REMARKS
JOHN WAYNE AP  MOCLDY    61  55  81 SE5       29.89F
LAKE FOREST FR   N/A     58  52  81 SE7       29.77F
SANTA ANA        N/A     63  57  80 CALM      29.84F
HUNTINGTON BCH   N/A     59  56  91 CALM      29.91S
LOS ALAMITOS   CLOUDY    61  57  88 SE2       29.89F
FULLERTON      CLEAR     61  32  33 S3        29.89S
LONG BEACH     CLOUDY    61  53  75 NE6       29.89S
L.A. AP        PTCLDY    58  53  84 S5        29.90S
L.A. DOWNTOWN  PTCLDY    59  53  80 CALM      29.89F

$$

THE INLAND EMPIRE

CITY           SKY/WX    TMP DP  RH WIND       PRES   REMARKS
CORONA         CLEAR     59  54  83 NW3       29.90S
CHINO          CLEAR     59  53  80 W6        29.91S
ONTARIO        CLEAR     58  53  84 W7        29.90R
RIVERSIDE AP   CLEAR     60  52  74 W5        29.90R
RIV CYN CREST    N/A     64  59  84 SW3         N/A
MORENO VALLEY    N/A     58  53  85 CALM      29.86S
MARCH ARB      CLEAR     57  52  83 E6        29.90R
HORSETHIEF CYN   N/A     56  41  58 S2        29.83S
PERRIS           N/A     58  55  90 S6          N/A
MENIFEE          N/A     59  56  90 S3        29.95S
HEMET EAST       N/A     59  47  64 CALM      29.85S
FRENCH VALLEY  CLOUDY    57  54  88 SW5       29.91S
TEMECULA         N/A     59  56  89 SW5       29.87S

$$

SAN BERNARDINO AND RIVERSIDE COUNTY MOUNTAINS

CITY           SKY/WX    TMP DP  RH WIND       PRES   REMARKS
BIG BEAR AP    CLEAR     39  23  52 CALM      30.08S
ANGELUS OAKS     N/A     49  27  41 CALM      29.76F
PINE COVE        N/A     53  27  36 N6        29.82S

$$

SOUTHERN DESERT INCLUDING THE COACHELLA VALLEY

CITY           SKY/WX    TMP DP  RH WIND       PRES   REMARKS
PALM SPRINGS   CLEAR     78  34  20 S6        29.75R
THOUSAND PALMS   N/A     80  34  19 NW14      29.71S
THERMAL        CLEAR     75  35  23 VRB3      29.70S
BLYTHE         CLEAR     78  41  26 S6        29.74F
IMPERIAL AP    CLEAR     74  47  38 CALM      29.71F
EL CENTRO NAS  CLEAR     75  45  34 W9        29.73F
YUMA AZ        CLEAR     78  55  44 SE13      29.74R

$$

UPPER DESERT

CITY           SKY/WX    TMP DP  RH WIND       PRES   REMARKS
VICTORVILLE AP CLEAR     61  30  31 CALM      29.91S
HESPERIA         N/A     59  35  41 W3        29.92S
APPLE VALLEY     N/A     60  32  35 CALM      29.97S
PALMDALE       CLEAR     66  29  24 SW14      29.89S
LANCASTER      CLEAR     62  32  32 SW12      29.88S
EDWARDS AFB    CLEAR     61  30  30 SW9       29.85S
DAGGETT        CLEAR     72  26  18 W14       29.83R
29 PALMS N     CLEAR     71  29  21 W9        29.89S
NEEDLES        CLEAR     84  35  17 S15       29.74R

$$

REGIONAL REPORTS

CITY           SKY/WX    TMP DP  RH WIND       PRES   REMARKS
SANTA BARBARA  CLEAR     51  48  89 CALM      29.86S
SANDBERG       CLEAR     60  27  28 NW13      29.98F
MT. WILSON       N/A     55  27  33 MISG        N/A
LAS VEGAS NV   CLEAR     78  29  16 S14       29.75S
PHOENIX AZ     MOCLDY    84  38  19 W5        29.80R
TIJUANA        CLEAR     61  52  72 CALM      29.92
ENSENADA NW      N/A     63  32  31 CALM      29.88S

$$

OFFSHORE ISLANDS

CITY           SKY/WX    TMP DP  RH WIND       PRES   REMARKS
CATALINA ARPT  FOG       53  53 100 NE6       29.91S VSB 1/2
SAN NICOLAS IS MOCLDY   N/A N/A N/A SW3       29.90R

$$

MARINE AND OFFSHORE BUOY REPORTS

STATION/POSITION SKY/WX   TEMP    WIND        PRES    SWELL
                          AIR SEA DIR/SP/G            HT/PER/DIR
                          (F)     (DEG/KT/KT) (MB)    (FT/S/D)
TANNER BANKS               60 60  290/  8/ 10 1013.1R   7/310/10
S CLEMENTE BASIN           61 65  240/  8/ 10 1012.6R   5/280/10
SAN NICOLAS IS.               59                N/A     3/180/18
SO. S. ROSA ISLA           58 61  310/ 16/ 19 1011.1F   5/10
W. S. BARBARA CH           56 57  300/ 14/ 17 1011.5R   5/310/10
S. MONICA BASIN            58 63  340/  8/ 10 1012.1R   3/270/ 6
S PEDRO CHANNEL               61                N/A     2/180/25
DANA POINT                    61                N/A     3/190/18
OCEANSIDE OFFSHR              62                N/A     3/200/25
TORREY PINES OTR              66                N/A     3/200/18
LA JOLLA 1                 63 65  180/  3/  4 1012.4S
MISSION BAY BUOY              65                N/A     3/200/25
SAN DIEGO BAY                 68              1013.0S
POINT LOMA SOUTH              66                N/A     5/190/18

$$




USA.gov is the U.S. government's official web portal to all federal, state and local government web resources and services.